TimePDT,TemperatureF,Dew PointF,Humidity,Sea Level PressureIn,VisibilityMPH,Wind Direction,Wind SpeedMPH,Gust SpeedMPH,PrecipitationIn,Events,Conditions,WindDirDegrees,DateUTC
12:56 AM,55.0,26.1,33,30.00,10.0,NNE,13.8,18.4,N/A,,Clear,30,2012-10-03 07:56:00
1:56 AM,55.9,21.0,26,30.01,10.0,NE,10.4,-,N/A,,Clear,40,2012-10-03 08:56:00
2:56 AM,57.9,15.1,19,29.99,10.0,East,5.8,-,N/A,,Clear,100,2012-10-03 09:56:00
3:56 AM,57.0,15.1,19,30.00,10.0,ESE,5.8,-,N/A,,Clear,110,2012-10-03 10:56:00
4:56 AM,57.0,18.0,22,30.00,10.0,ESE,5.8,-,N/A,,Clear,110,2012-10-03 11:56:00
6:56 AM,55.9,23.0,28,30.01,10.0,East,5.8,-,N/A,,Clear,90,2012-10-03 13:56:00
7:56 AM,57.0,27.0,32,30.01,10.0,ESE,4.6,-,N/A,,Clear,110,2012-10-03 14:56:00
8:56 AM,60.1,30.0,32,30.01,10.0,ESE,5.8,-,N/A,,Clear,110,2012-10-03 15:56:00
9:56 AM,62.1,33.1,34,30.02,10.0,Variable,4.6,-,N/A,,Clear,0,2012-10-03 16:56:00
10:56 AM,66.9,32.0,27,30.01,10.0,ESE,10.4,-,N/A,,Clear,110,2012-10-03 17:56:00
11:56 AM,69.1,28.0,22,29.99,10.0,ESE,9.2,-,N/A,,Clear,110,2012-10-03 18:56:00
12:56 PM,70.0,28.9,22,29.97,10.0,Variable,5.8,-,N/A,,Clear,0,2012-10-03 19:56:00
1:56 PM,71.1,26.1,19,29.96,10.0,SE,6.9,-,N/A,,Clear,130,2012-10-03 20:56:00
2:56 PM,73.0,36.0,26,29.94,10.0,Calm,Calm,-,N/A,,Clear,0,2012-10-03 21:56:00
3:56 PM,72.0,27.0,19,29.94,10.0,East,3.5,-,N/A,,Clear,80,2012-10-03 22:56:00
4:56 PM,69.1,34.0,27,29.94,10.0,NNW,3.5,-,N/A,,Clear,340,2012-10-03 23:56:00
5:56 PM,66.0,37.0,34,29.94,10.0,NNW,6.9,-,N/A,,Clear,340,2012-10-04 00:56:00
6:56 PM,63.0,36.0,37,29.95,10.0,North,9.2,-,N/A,,Clear,350,2012-10-04 01:56:00
7:56 PM,64.0,35.1,34,29.95,10.0,North,9.2,-,N/A,,Clear,360,2012-10-04 02:56:00
8:56 PM,66.0,32.0,28,29.94,10.0,North,8.1,-,N/A,,Clear,360,2012-10-04 03:56:00
9:56 PM,66.0,24.1,20,29.94,10.0,NNE,4.6,-,N/A,,Clear,20,2012-10-04 04:56:00
10:56 PM,64.0,30.9,29,29.94,10.0,SE,8.1,-,N/A,,Clear,130,2012-10-04 05:56:00
11:56 PM,62.1,28.0,28,29.94,10.0,SE,10.4,-,N/A,,Clear,130,2012-10-04 06:56:00